User: anonymous   Login
Location: Theydon Bois
(51.6750°N, 0.1050°E)
Time: 09:20:08
(UTC+01:00)
Language:

MTI - Orbit

View from above orbital plane
View from above orbital plane
View from above satellite
View from above satellite

Ground track
Ground track

The orbit data is extracted from the following two-line orbital elements,

1 26102U 00014A   17295.07044928  .00005500  00000-0  10582-3 0  9993
2 26102  97.5789 112.1856 0007510 163.6471 313.6845 15.48334103974140
Epoch (UTC): 22 October 2017 01:41:26
Eccentricity: 0.0007510
inclination: 97.5789°
perigee height: 416 km
apogee height: 427 km
right ascension of ascending node: 112.1856°
argument of perigee: 163.6471°
revolutions per day: 15.48334103
mean anomaly at epoch: 313.6845°
orbit number at epoch: 97414

The dashed part of the orbit path shows where the satellite is in the earth's shadow,  

DLR